Koksijde, Belgium

6:57 PM CET on February 21, 2017 (GMT +0100)
Ostend

Weather History for EBOS - February, 2013

Change the Weather History Date:

Tuesday, February 19, 2013

  Actual Average Record
Temperature  
Mean Temperature 33 °F -  
Max Temperature 43 °F 47 °F 51 °F (1998)
Min Temperature 23 °F 36 °F 21 °F (2008)
Degree Days  
Heating Degree Days 32    
Moisture  
Dew Point 31 °F    
Average Humidity 88    
Maximum Humidity 100    
Minimum Humidity 67    
Precipitation  
Precipitation 0.00 in - - ()
Sea Level Pressure  
Sea Level Pressure 30.10 in    
Wind  
Wind Speed 3 mph ()    
Max Wind Speed 8 mph    
Max Gust Speed -    
Visibility 2.8 miles    
Events Fog , Rain    
Averages and records for this station are not official NWS values.
T = Trace of Precipitation, MM = Missing Value Source: Averaged Metar Reports

Daily Weather History Graph

Daily Weather History Graph

Search for Another Location

Airport or City:

Trip Planner

Search our weather history database for the weather conditions in past years. The results will help you decide how hot, cold, wet, or windy it might be!

Date:

Astronomy

Feb. 19, 2013 Rise Set
Actual Time 7:53 AM CET 6:11 PM CET
Civil Twilight 7:19 AM CET 6:45 PM CET
Nautical Twilight 6:41 AM CET 7:24 PM CET
Astronomical Twilight 6:03 AM CET 8:02 PM CET
Moon 12:09 PM CET (2/19) 3:33 AM CET (2/19)
Length of Visible Light 11h 25m
Length of Day
10h 17m
Waxing Gibbous, 65% of the Moon is Illuminated
Feb 19
Waxing Gibbous
Feb 25
Full
Mar 4
Last Quarter
Mar 11
New
Mar 19
First Quarter

Hourly Weather History & Observations

Time (CET) Temp. Windchill Dew Point Humidity Pressure Visibility Wind Dir Wind Speed Gust Speed Precip Events Conditions
12:20 AM 32.0 °F 28.7 °F 28.4 °F 87% 30.15 in 5.6 mi NE 3.5 mph - N/A   Unknown
12:50 AM 32.0 °F - 28.4 °F 87% 30.15 in 5.0 mi NE 2.3 mph - N/A   Unknown
1:00 AM 31 °F - 29 °F 90% 30.17 in 5 mi NE 2.2 mph - -   Clear
1:20 AM 30.2 °F - 30.2 °F 100% 30.15 in 4.3 mi Variable 1.2 mph - N/A Fog Fog
1:50 AM 30.2 °F - 30.2 °F 100% 30.15 in 4.3 mi ENE 1.2 mph - N/A Fog Fog
2:20 AM 28.4 °F - 26.6 °F 93% 30.15 in 3.7 mi NE 1.2 mph - N/A Fog Fog
2:50 AM 28.4 °F - 26.6 °F 93% 30.12 in 3.7 mi ENE 1.2 mph - N/A Fog Fog
3:20 AM 26.6 °F - 24.8 °F 93% 30.12 in 2.5 mi East 1.2 mph - N/A Fog Fog
3:50 AM 26.6 °F - 26.6 °F 100% 30.12 in 0.3 mi SSE 1.2 mph - N/A Fog Light Freezing Fog
4:00 AM 26 °F - 26 °F 100% 30.13 in 0 mi SSE 2.2 mph - - Fog Fog
4:20 AM 26.6 °F - 26.6 °F 100% 30.12 in 0.1 mi Variable 1.2 mph - N/A Fog Light Freezing Fog
4:50 AM 24.8 °F - 24.8 °F 100% 30.09 in 0.1 mi East 1.2 mph - N/A Fog Light Freezing Fog
5:20 AM 24.8 °F - 24.8 °F 100% 30.09 in 0.1 mi Variable 1.2 mph - N/A Fog Light Freezing Fog
5:50 AM 24.8 °F - 24.8 °F 100% 30.09 in 0.2 mi SW 2.3 mph - N/A Fog Light Freezing Fog
6:20 AM 24.8 °F - 24.8 °F 100% 30.09 in 0.2 mi Calm Calm - N/A Fog Light Freezing Fog
6:50 AM 24.8 °F - 24.8 °F 100% 30.09 in 0.2 mi Calm Calm - N/A Fog Light Freezing Fog
7:00 AM 25 °F - 25 °F 98% 30.12 in 0 mi Calm Calm - - Fog Fog
7:20 AM 24.8 °F - 23.0 °F 93% 30.09 in 0.2 mi SW 1.2 mph - N/A Fog Light Freezing Fog
7:50 AM 24.8 °F - 23.0 °F 93% 30.09 in 0.2 mi Calm Calm - N/A Fog Light Freezing Fog
8:20 AM 23.0 °F - 21.2 °F 93% 30.12 in 0.3 mi Variable 1.2 mph - N/A Fog Light Freezing Fog
8:50 AM 24.8 °F - 23.0 °F 93% 30.12 in 0.4 mi SW 2.3 mph - N/A Fog Light Freezing Fog
9:20 AM 28.4 °F - 26.6 °F 93% 30.12 in 0.6 mi Variable 1.2 mph - N/A Fog Light Freezing Fog
9:50 AM 30.2 °F - 26.6 °F 86% 30.12 in 1.0 mi Variable 2.3 mph - N/A   Mist
10:00 AM 29 °F - 27 °F 89% 30.13 in 1 mi SE 2.2 mph - - Fog Light Fog
10:20 AM 30.2 °F - 28.4 °F 93% 30.12 in 1.2 mi Variable 2.3 mph - N/A   Mist
10:50 AM 32.0 °F - 28.4 °F 87% 30.09 in 1.6 mi Variable 1.2 mph - N/A   Mist
11:20 AM 33.8 °F - 30.2 °F 87% 30.09 in 1.9 mi Variable 1.2 mph - N/A   Mist
11:50 AM 37.4 °F - 33.8 °F 87% 30.09 in - Variable 2.3 mph - N/A   Mist
12:20 PM 39.2 °F - 35.6 °F 87% 30.09 in 2.8 mi Variable 2.3 mph - N/A   Mist
12:50 PM 42.8 °F 39.3 °F 35.6 °F 76% 30.09 in 3.1 mi WNW 5.8 mph - N/A   Haze
1:00 PM 42 °F - 36 °F 72% 30.11 in 3 mi WNW 6.7 mph - -   Haze
1:20 PM 42.8 °F 40.1 °F 35.6 °F 76% 30.09 in 4.3 mi NW 4.6 mph - N/A   Partly Cloudy
1:50 PM 42.8 °F 39.3 °F 35.6 °F 76% 30.09 in 4.3 mi NNW 5.8 mph - N/A   Partly Cloudy
2:20 PM 42.8 °F 38.0 °F 35.6 °F 76% 30.06 in 5.0 mi WNW 8.1 mph - N/A   Partly Cloudy
2:50 PM 42.8 °F 38.6 °F 35.6 °F 76% 30.06 in 6.2 mi WNW 6.9 mph - N/A   Partly Cloudy
3:20 PM 42.8 °F 38.6 °F 35.6 °F 76% 30.06 in - NW 6.9 mph - N/A   Clear
3:50 PM 42.8 °F 38.6 °F 35.6 °F 76% 30.06 in - NW 6.9 mph - N/A   Clear
4:00 PM 43 °F - 36 °F 67% 30.08 in 6 mi NW 6.7 mph - -   Partly Cloudy
4:20 PM 42.8 °F 38.0 °F 35.6 °F 76% 30.06 in 6.2 mi WNW 8.1 mph - N/A   Partly Cloudy
4:50 PM 41.0 °F 36.4 °F 35.6 °F 81% 30.06 in - NW 6.9 mph - N/A   Clear
5:20 PM 41.0 °F 36.4 °F 35.6 °F 81% 30.06 in - NW 6.9 mph - N/A   Clear
5:50 PM 39.2 °F 34.2 °F 33.8 °F 81% 30.06 in - NW 6.9 mph - N/A   Clear
6:20 PM 37.4 °F 33.8 °F 33.8 °F 87% 30.06 in 5.6 mi NNW 4.6 mph - N/A   Partly Cloudy
6:50 PM 37.4 °F 33.8 °F 33.8 °F 87% 30.06 in 5.0 mi North 4.6 mph - N/A   Partly Cloudy
7:00 PM 38 °F - 34 °F 81% 30.09 in 5 mi North 4.5 mph - -   Scattered Clouds
7:20 PM 37.4 °F 33.8 °F 33.8 °F 87% 30.09 in 5.0 mi North 4.6 mph - N/A   Scattered Clouds
7:50 PM 37.4 °F 33.8 °F 33.8 °F 87% 30.09 in 3.7 mi NNE 4.6 mph - N/A   Scattered Clouds
8:20 PM 35.6 °F 31.7 °F 32.0 °F 87% 30.09 in 3.7 mi NE 4.6 mph - N/A   Scattered Clouds
8:50 PM 35.6 °F - 33.8 °F 93% 30.09 in 3.7 mi North 2.3 mph - N/A   Mostly Cloudy
9:20 PM 37.4 °F 34.9 °F 32.0 °F 81% 30.09 in 3.7 mi North 3.5 mph - N/A   Mostly Cloudy
9:50 PM 39.2 °F 35.0 °F 33.8 °F 81% 30.09 in 3.7 mi North 5.8 mph - N/A   Mostly Cloudy
10:00 PM 38 °F - 35 °F 83% 30.12 in 4 mi North 4.5 mph - -   Mostly Cloudy
10:20 PM 39.2 °F 34.2 °F 35.6 °F 87% 30.09 in 3.7 mi North 6.9 mph - N/A   Mostly Cloudy
10:50 PM 39.2 °F 34.2 °F 35.6 °F 87% 30.09 in 3.7 mi NNE 6.9 mph - N/A   Mostly Cloudy
11:20 PM 39.2 °F 35.0 °F 35.6 °F 87% 30.09 in 2.8 mi NE 5.8 mph - N/A Rain Light Rain
11:50 PM 39.2 °F 35.0 °F 35.6 °F 87% 30.09 in 2.8 mi NE 5.8 mph - N/A Rain Light Rain